Météo par heure à Kyurek

Ce jour, 24 Juillet, Samedi

Heure Température Précipitation Vent Pression Humidité
00:00 +21°C° 0.1 mm 1 m/s 669 mmHg 83%
01:00 +21°C° 0.1 mm 1 m/s 669 mmHg 85%
02:00 +20°C° 0.1 mm 1 m/s 670 mmHg 87%
03:00 +20°C° 0.1 mm 1 m/s 670 mmHg 89%
04:00 +20°C° 0.2 mm 1 m/s 670 mmHg 89%
05:00 +20°C° 0.2 mm 1 m/s 670 mmHg 89%
06:00 +20°C° 0.2 mm 1 m/s 671 mmHg 89%
07:00 +20°C° 0.2 mm 1 m/s 671 mmHg 87%
08:00 +21°C° 0.2 mm 1 m/s 671 mmHg 85%
09:00 +21°C° 0.2 mm 1 m/s 671 mmHg 83%
10:00 +21°C° 0.6 mm 1 m/s 671 mmHg 85%
11:00 +20°C° 0.6 mm 1 m/s 671 mmHg 86%
12:00 +20°C° 0.6 mm 1 m/s 671 mmHg 88%
13:00 +20°C° 0.1 mm 2 m/s 671 mmHg 83%
14:00 +21°C° 0.1 mm 2 m/s 671 mmHg 79%
15:00 +23°C° 0.1 mm 2 m/s 672 mmHg 75%
16:00 +21°C° 0.1 mm 2 m/s 672 mmHg 77%
17:00 +22°C° 0.1 mm 1 m/s 672 mmHg 79%
18:00 +19°C° 0.1 mm 0 m/s 672 mmHg 81%
19:00 +21°C° 0 mm 1 m/s 672 mmHg 82%
20:00 +21°C° 0 mm 1 m/s 673 mmHg 83%
21:00 +21°C° 0 mm 1 m/s 673 mmHg 83%
22:00 +20°C° 0 mm 1 m/s 673 mmHg 83%
23:00 +20°C° 0 mm 1 m/s 673 mmHg 83%

Demain, 25 Juillet, Dimanche

Heure Température Précipitation Vent Pression Humidité
00:00 +20°C° 0 mm 1 m/s 673 mmHg 82%
01:00 +20°C° 0 mm 1 m/s 673 mmHg 82%
02:00 +20°C° 0 mm 1 m/s 673 mmHg 83%
03:00 +19°C° 0 mm 1 m/s 673 mmHg 83%
04:00 +20°C° 0 mm 1 m/s 673 mmHg 80%
05:00 +21°C° 0 mm 1 m/s 674 mmHg 78%
06:00 +21°C° 0 mm 1 m/s 674 mmHg 75%
07:00 +22°C° 0 mm 1 m/s 675 mmHg 70%
08:00 +23°C° 0 mm 2 m/s 675 mmHg 64%
09:00 +24°C° 0 mm 3 m/s 675 mmHg 58%
10:00 +25°C° 0 mm 3 m/s 675 mmHg 57%
11:00 +26°C° 0 mm 3 m/s 675 mmHg 55%
12:00 +26°C° 0 mm 3 m/s 675 mmHg 53%
13:00 +26°C° 0 mm 3 m/s 675 mmHg 55%
14:00 +26°C° 0 mm 3 m/s 675 mmHg 56%
15:00 +25°C° 0 mm 3 m/s 675 mmHg 58%
16:00 +25°C° 0 mm 3 m/s 675 mmHg 59%
17:00 +24°C° 0 mm 2 m/s 675 mmHg 61%
18:00 +24°C° 0 mm 2 m/s 675 mmHg 63%
19:00 +21°C° 0 mm 2 m/s 675 mmHg 67%
20:00 +21°C° 0 mm 1 m/s 675 mmHg 72%
21:00 +20°C° 0 mm 1 m/s 675 mmHg 77%
22:00 +20°C° 0 mm 1 m/s 675 mmHg 77%
23:00 +19°C° 0 mm 1 m/s 675 mmHg 77%

Après-demain, 26 Juillet, Lundi

Heure Température Précipitation Vent Pression Humidité
00:00 +19°C° 0 mm 1 m/s 675 mmHg 77%
01:00 +19°C° 0 mm 1 m/s 675 mmHg 77%
02:00 +19°C° 0 mm 1 m/s 675 mmHg 76%
03:00 +19°C° 0 mm 1 m/s 675 mmHg 76%
04:00 +20°C° 0 mm 1 m/s 676 mmHg 73%
05:00 +21°C° 0 mm 1 m/s 676 mmHg 70%
06:00 +22°C° 0 mm 1 m/s 676 mmHg 66%
07:00 +24°C° 0 mm 2 m/s 676 mmHg 59%
08:00 +25°C° 0 mm 2 m/s 676 mmHg 51%
09:00 +27°C° 0 mm 3 m/s 676 mmHg 44%
10:00 +28°C° 0 mm 3 m/s 676 mmHg 42%
11:00 +29°C° 0 mm 4 m/s 676 mmHg 39%
12:00 +29°C° 0 mm 4 m/s 676 mmHg 37%
13:00 +29°C° 0.1 mm 4 m/s 676 mmHg 37%
14:00 +29°C° 0.1 mm 4 m/s 676 mmHg 38%
15:00 +29°C° 0.1 mm 4 m/s 676 mmHg 38%
16:00 +28°C° 0 mm 3 m/s 676 mmHg 41%
17:00 +27°C° 0 mm 3 m/s 676 mmHg 44%
18:00 +26°C° 0 mm 2 m/s 675 mmHg 47%
19:00 +24°C° 0 mm 2 m/s 675 mmHg 52%
20:00 +23°C° 0 mm 2 m/s 675 mmHg 57%
21:00 +20°C° 0 mm 2 m/s 675 mmHg 62%
22:00 +20°C° 0 mm 2 m/s 675 mmHg 62%
23:00 +20°C° 0 mm 2 m/s 675 mmHg 63%

27 Juillet, Mardi

Heure Température Précipitation Vent Pression Humidité
00:00 +20°C° 0 mm 2 m/s 675 mmHg 63%
01:00 +19°C° 0.1 mm 2 m/s 675 mmHg 64%
02:00 +19°C° 0.1 mm 2 m/s 675 mmHg 64%
03:00 +19°C° 0.1 mm 2 m/s 674 mmHg 65%
04:00 +20°C° 0.1 mm 2 m/s 675 mmHg 62%
05:00 +20°C° 0.1 mm 2 m/s 675 mmHg 60%
06:00 +22°C° 0.1 mm 1 m/s 675 mmHg 57%
07:00 +24°C° 0 mm 2 m/s 675 mmHg 52%
08:00 +25°C° 0 mm 3 m/s 675 mmHg 46%
09:00 +27°C° 0 mm 3 m/s 675 mmHg 41%
10:00 +27°C° 0.1 mm 4 m/s 675 mmHg 40%
11:00 +28°C° 0.1 mm 4 m/s 675 mmHg 39%
12:00 +28°C° 0.1 mm 4 m/s 675 mmHg 39%
13:00 +28°C° 0.1 mm 5 m/s 675 mmHg 40%
14:00 +28°C° 0.1 mm 5 m/s 675 mmHg 42%
15:00 +28°C° 0.1 mm 5 m/s 675 mmHg 44%
16:00 +26°C° 0 mm 5 m/s 675 mmHg 52%
17:00 +23°C° 0 mm 4 m/s 675 mmHg 61%
18:00 +22°C° 0 mm 4 m/s 675 mmHg 70%
19:00 +21°C° 1.3 mm 3 m/s 675 mmHg 76%
20:00 +20°C° 1.3 mm 3 m/s 675 mmHg 83%
21:00 +19°C° 1.3 mm 2 m/s 675 mmHg 89%
22:00 +18°C° 3.1 mm 2 m/s 674 mmHg 91%
23:00 +17°C° 3.1 mm 2 m/s 674 mmHg 93%

28 Juillet, Mercredi

Heure Température Précipitation Vent Pression Humidité
00:00 +16°C° 3.1 mm 2 m/s 674 mmHg 94%
01:00 +16°C° 0.3 mm 2 m/s 674 mmHg 89%
02:00 +16°C° 0.3 mm 2 m/s 674 mmHg 83%
03:00 +17°C° 0.3 mm 2 m/s 674 mmHg 78%
04:00 +16°C° 0 mm 2 m/s 674 mmHg 76%
05:00 +16°C° 0 mm 2 m/s 674 mmHg 73%
06:00 +16°C° 0 mm 2 m/s 675 mmHg 71%
07:00 +17°C° 0 mm 2 m/s 675 mmHg 69%
08:00 +17°C° 0 mm 2 m/s 675 mmHg 66%
09:00 +17°C° 0 mm 2 m/s 675 mmHg 63%
10:00 +17°C° 0.1 mm 2 m/s 675 mmHg 61%
11:00 +18°C° 0.1 mm 2 m/s 675 mmHg 60%
12:00 +18°C° 0.1 mm 3 m/s 675 mmHg 58%
13:00 +18°C° 0 mm 3 m/s 675 mmHg 60%
14:00 +18°C° 0 mm 3 m/s 675 mmHg 62%
15:00 +18°C° 0 mm 3 m/s 675 mmHg 64%
16:00 +17°C° 0 mm 2 m/s 675 mmHg 64%
17:00 +17°C° 0 mm 2 m/s 675 mmHg 64%
18:00 +17°C° 0 mm 2 m/s 676 mmHg 64%
19:00 +16°C° 0 mm 2 m/s 675 mmHg 67%
20:00 +16°C° 0 mm 2 m/s 675 mmHg 70%
21:00 +15°C° 0 mm 2 m/s 675 mmHg 73%
22:00 +14°C° 0 mm 3 m/s 675 mmHg 71%
23:00 +14°C° 0 mm 3 m/s 675 mmHg 69%

29 Juillet, Jeudi

Heure Température Précipitation Vent Pression Humidité
00:00 +13°C° 0 mm 3 m/s 675 mmHg 68%
01:00 +13°C° 0 mm 3 m/s 674 mmHg 63%
02:00 +13°C° 0 mm 3 m/s 674 mmHg 58%
03:00 +13°C° 0 mm 3 m/s 674 mmHg 54%
04:00 +14°C° 0 mm 3 m/s 674 mmHg 52%
05:00 +14°C° 0 mm 3 m/s 674 mmHg 50%
06:00 +16°C° 0 mm 2 m/s 675 mmHg 49%
07:00 +18°C° 0 mm 2 m/s 675 mmHg 43%
08:00 +20°C° 0 mm 2 m/s 675 mmHg 38%
09:00 +23°C° 0 mm 2 m/s 676 mmHg 33%
10:00 +23°C° 0 mm 2 m/s 676 mmHg 32%
11:00 +24°C° 0 mm 3 m/s 676 mmHg 31%
12:00 +25°C° 0 mm 4 m/s 676 mmHg 30%
13:00 +25°C° 0 mm 4 m/s 675 mmHg 31%
14:00 +25°C° 0 mm 4 m/s 675 mmHg 32%
15:00 +25°C° 0 mm 4 m/s 675 mmHg 33%
16:00 +24°C° 0 mm 3 m/s 675 mmHg 36%
17:00 +23°C° 0 mm 2 m/s 675 mmHg 39%
18:00 +21°C° 0 mm 2 m/s 675 mmHg 42%
19:00 +19°C° 0 mm 2 m/s 675 mmHg 46%
20:00 +18°C° 0 mm 2 m/s 675 mmHg 50%
21:00 +16°C° 0 mm 3 m/s 675 mmHg 54%
22:00 +16°C° 0 mm 3 m/s 674 mmHg 54%
23:00 +16°C° 0 mm 3 m/s 674 mmHg 55%
Voir plus

Nous avons besoin de votre consentement

Meteoprog et ses fournisseurs de services peuvent stocker et accéder à des données personnelles telles que des cookies, des identifiants d'appareils ou d'autres technologies similaires sur votre appareil et traiter ces données pour personnaliser le contenu et les publicités, ainsi que pour fournir des fonctionnalités de médias sociaux et analyser le trafic.

  • Stocker et/ou accéder à des informations sur votre appareil

    Des cookies, des identifiants d'appareils ou d'autres informations peuvent être stockés ou accessibles sur votre appareil aux fins indiquées ci-dessus.

  • Annonces et contenus personnalisés, mesure des annonces et des contenus, connaissance de l'audience et développement de produits

    Les annonces et le contenu peuvent être personnalisés en fonction d'un profil. D'autres données peuvent être ajoutées pour mieux personnaliser les annonces et le contenu. Les performances des publicités et du contenu peuvent être mesurées. Il est possible d'obtenir des informations sur le public qui a vu les publicités et le contenu. Ces données peuvent être utilisées pour développer ou améliorer l'expérience de l'utilisateur, les systèmes et les logiciels.

En cliquant sur "J'accepte", vous autorisez l'utilisation de cookies, des identifiants d'appareils, des balises web ou d'autres technologies similaires. Vos paramètres peuvent être modifiés dans le navigateur de votre appareil.

Dans certains cas, des intérêts légitimes peuvent être invoqués plutôt qu'un consentement. Vous pouvez en savoir plus à ce sujet dans notre Politique de confidentialité et de cookies.